Location: Clatteringshaws Loch
(55.0508°N, 4.2860°W)
Time: 22:40:51
(UTC+01:00)

Amateur Radio Satellites - All Passes

Search period start: 23 April 2017 22:10
Search period end: 24 April 2017 22:10
Location: Clatteringshaws Loch, 55.0508°N, 4.2860°W

Satellite Date Start Highest point End Downlink Frequencies (MHz)
Time Altitude Azimuth
TIGRISAT 23 Apr 22:20:28 22:23:02 15° 87° (E) 22:25:36 435.000
ESTCUBE 1 23 Apr 22:22:47 22:26:21 23° 57° (ENE) 22:29:57 437.505/2401.250
M-CUBED/EXP-1 PRIME 23 Apr 22:23:35 22:27:35 32° 306° (NW) 22:31:20 437.505
LO-87 23 Apr 22:25:24 22:28:35 29° 64° (ENE) 22:31:46 145.935 - 145.965
AO-85 23 Apr 22:29:03 22:32:51 48° 232° (SW) 22:36:44 145.980
UNISAT 6 23 Apr 22:39:57 22:43:27 24° 92° (E) 22:46:57 437.425
DELFI C3 23 Apr 22:42:03 22:45:40 32° 264° (W) 22:49:20 145.870
OBJECT BX 23 Apr 22:42:51 22:46:13 35° 263° (W) 22:49:37 145.990 - 145.960
ZACube-1 23 Apr 22:42:57 22:44:23 11° 276° (W) 22:45:49 437.345
SPROUT 23 Apr 22:47:33 22:49:40 14° 51° (NE) 22:51:47 437.525
FO-29 23 Apr 22:52:10 22:56:28 26° 91° (E) 23:00:50 435.910
VELOX 1 23 Apr 22:52:42 22:55:35 17° 53° (NE) 22:58:27 145.980
AO-73 23 Apr 22:53:01 22:53:32 10° 277° (W) 22:54:04 145.935
PRISM 23 Apr 23:13:29 23:17:41 68° 104° (ESE) 23:21:48 437.425
BEESAT 2 23 Apr 23:24:07 23:28:11 69° 39° (NE) 23:32:15 435.950
STRAND 1 23 Apr 23:24:12 23:26:47 14° 315° (NW) 23:29:21 437.568
50 SAT 23 Apr 23:24:25 23:26:17 14° 56° (NE) 23:28:11 437.505
UKube-1 23 Apr 23:31:42 23:33:48 13° 49° (NE) 23:35:54 .
BEESAT 3 23 Apr 23:33:39 23:37:37 55° 230° (SW) 23:41:32 437.485
NO-84 23 Apr 23:39:04 23:42:19 64° 163° (SSE) 23:45:20 435.350 FM
QB50P2 23 Apr 23:43:35 23:44:53 11° 84° (E) 23:46:12 145.880/145.840
DX 1 23 Apr 23:55:25 23:58:59 25° 58° (ENE) 00:02:34 434.975-435.025
TIGRISAT 23 Apr 23:56:03 00:00:19 81° 287° (WNW) 00:04:36 435.000
ESTCUBE 1 23 Apr 23:58:19 00:02:48 65° 258° (WSW) 00:07:20 437.505/2401.250
LO-87 23 Apr 23:58:40 00:01:59 33° 264° (W) 00:05:20 145.935 - 145.965
NANOSAT C BR1 24 Apr 00:08:07 00:10:46 16° 88° (E) 00:13:25 145.865
UNISAT 6 24 Apr 00:16:18 00:20:28 51° 292° (WNW) 00:24:37 437.425
AIST 2D 24 Apr 00:16:22 00:19:33 31° 96° (E) 00:22:43 435.315
SPROUT 24 Apr 00:20:36 00:24:51 69° 72° (ENE) 00:29:08 437.525
VELOX 1 24 Apr 00:26:57 00:31:25 85° 72° (ENE) 00:35:56 145.980
EO-79 24 Apr 00:32:57 00:36:36 28° 94° (E) 00:40:14 145.935-145.965
FO-29 24 Apr 00:36:57 00:42:05 60° 293° (WNW) 00:47:15 435.910
DUCHIFAT 1 24 Apr 00:39:16 00:42:52 27° 94° (E) 00:46:26 145.980
PRISM 24 Apr 00:49:28 00:52:34 20° 304° (WNW) 00:55:39 437.425
50 SAT 24 Apr 00:55:16 00:58:46 80° 255° (WSW) 01:02:18 437.505
BEESAT 2 24 Apr 01:02:21 01:05:39 24° 240° (WSW) 01:08:55 435.950
UKube-1 24 Apr 01:04:46 01:09:04 65° 69° (ENE) 01:13:23 .
POLYITAN 1 24 Apr 01:10:51 01:15:02 61° 102° (ESE) 01:19:10 437.675
ITUPSAT 1 24 Apr 01:16:28 01:19:16 16° 49° (NE) 01:22:04 437.325
NO-84 24 Apr 01:16:41 01:19:48 90° 358° (N) 01:22:45 435.350 FM
QB50P2 24 Apr 01:17:15 01:21:29 74° 105° (ESE) 01:25:40 145.880/145.840
DX 1 24 Apr 01:30:33 01:34:53 58° 258° (WSW) 01:39:15 434.975-435.025
TIGRISAT 24 Apr 01:33:58 01:36:23 15° 307° (NW) 01:38:50 435.000
ESTCUBE 1 24 Apr 01:39:31 01:40:33 11° 278° (W) 01:41:34 437.505/2401.250
Gurwin Techsat 1B 24 Apr 01:42:21 01:44:38 13° 82° (E) 01:46:54 435.225
NANOSAT C BR1 24 Apr 01:42:49 01:47:01 76° 288° (WNW) 01:51:11 145.865
AIST 2D 24 Apr 01:49:41 01:52:44 28° 295° (WNW) 01:55:46 435.315
BUGSAT 1 24 Apr 01:55:12 01:59:09 50° 100° (E) 02:03:03 437.445
UNISAT 6 24 Apr 01:55:27 01:56:16 10° 312° (NW) 01:57:06 437.425
SPROUT 24 Apr 01:58:15 02:01:14 18° 271° (W) 02:04:14 437.525
VELOX 1 24 Apr 02:05:44 02:08:30 16° 273° (W) 02:11:16 145.980
Oscar 19 24 Apr 02:07:15 02:11:47 29° 93° (E) 02:16:17 437.125/150
EO-79 24 Apr 02:08:32 02:12:31 42° 294° (WNW) 02:16:29 145.935-145.965
BEESAT 24 Apr 02:13:48 02:18:10 37° 62° (ENE) 02:22:32 436.000
DUCHIFAT 1 24 Apr 02:14:44 02:18:43 43° 293° (WNW) 02:22:40 145.980
FO-29 24 Apr 02:23:29 02:26:15 15° 315° (NW) 02:29:00 435.910
MOZHAYETS 4 24 Apr 02:38:09 02:42:07 30° 61° (ENE) 02:46:06
PCSat 24 Apr 02:40:09 02:42:33 13° 103° (ESE) 02:44:58 145.827
UKube-1 24 Apr 02:42:19 02:45:31 20° 269° (W) 02:48:44 .
POLYITAN 1 24 Apr 02:47:15 02:50:30 22° 302° (WNW) 02:53:44 437.675
ITUPSAT 1 24 Apr 02:51:36 02:56:20 70° 70° (ENE) 03:01:06 437.325
QB50P2 24 Apr 02:53:51 02:56:50 19° 304° (NW) 02:59:48 145.880/145.840
NO-84 24 Apr 02:54:19 02:57:10 42° 205° (SSW) 02:59:54 435.350 FM
KKS-1 24 Apr 03:16:17 03:19:26 19° 54° (NE) 03:22:35 437.445
NANOSAT C BR1 24 Apr 03:19:51 03:22:04 14° 308° (NW) 03:24:17 145.865
Gurwin Techsat 1B 24 Apr 03:20:21 03:25:40 64° 103° (ESE) 03:30:57 435.225
CUBESAT XI-V 24 Apr 03:20:46 03:24:04 19° 54° (NE) 03:27:23 437.345
ITAMSAT 1 24 Apr 03:26:18 03:29:31 16° 86° (E) 03:32:44 435.822/435.867
BUGSAT 1 24 Apr 03:31:01 03:34:17 24° 300° (WNW) 03:37:31 437.445
Oscar 19 24 Apr 03:46:18 03:51:26 57° 293° (WNW) 03:56:32 437.125/150
BEESAT 24 Apr 03:51:28 03:55:57 40° 262° (W) 04:00:27 436.000
STARS 24 Apr 03:57:24 04:00:41 21° 56° (NE) 04:03:59 437.465
YUBILEINY 24 Apr 03:59:45 04:06:34 27° 76° (ENE) 04:13:25 435.215
MOZHAYETS 4 24 Apr 04:14:44 04:19:08 47° 261° (W) 04:23:34
PCSat 24 Apr 04:19:34 04:24:53 59° 124° (SE) 04:30:15 145.827
AO-7 24 Apr 04:21:15 04:28:58 40° 96° (E) 04:36:38 .
ITUPSAT 1 24 Apr 04:31:03 04:34:40 21° 270° (W) 04:38:17 437.325
NO-84 24 Apr 04:33:50 04:34:00 10° 224° (SW) 04:34:10 435.350 FM
M-CUBED/EXP-1 PRIME 24 Apr 04:37:28 04:37:45 10° 34° (NE) 04:38:03 437.505
KKS-1 24 Apr 04:50:59 04:55:28 84° 251° (WSW) 05:00:00 437.445
CUBESAT XI-V 24 Apr 04:56:14 05:00:53 86° 251° (WSW) 05:05:38 437.345
Gurwin Techsat 1B 24 Apr 05:00:47 05:05:19 29° 303° (WNW) 05:09:50 435.225
ITAMSAT 1 24 Apr 05:04:35 05:09:49 83° 107° (ESE) 05:15:00 435.822/435.867
Oscar 19 24 Apr 05:26:57 05:29:47 15° 315° (NW) 05:32:37 437.125/150
STARS 24 Apr 05:32:12 05:36:38 73° 256° (WSW) 05:41:03 437.465
STRAND 1 24 Apr 05:50:28 05:54:01 19° 51° (NE) 05:57:34 437.568
YUBILEINY 24 Apr 05:53:35 06:02:18 89° 100° (E) 06:11:05 435.215
PCSat 24 Apr 06:03:22 06:08:33 43° 327° (NNW) 06:13:45 145.827
M-CUBED/EXP-1 PRIME 24 Apr 06:06:50 06:11:00 33° 55° (NE) 06:15:12 437.505
DOVE 4 24 Apr 06:09:25 06:12:51 19° 86° (E) 06:16:07 437.250
XW-2C 24 Apr 06:12:38 06:13:27 11° 85° (E) 06:14:16 145.795 - 145.815
AO-7 24 Apr 06:14:03 06:22:18 69° 299° (WNW) 06:30:31 .
KKS-1 24 Apr 06:30:24 06:32:45 14° 274° (W) 06:35:07 437.445
CUBESAT XI-V 24 Apr 06:36:20 06:39:00 15° 275° (W) 06:41:42 437.345
XW-2F 24 Apr 06:39:06 06:41:48 18° 90° (E) 06:44:30 145.980 - 146.000
ITAMSAT 1 24 Apr 06:44:46 06:48:46 23° 307° (NW) 06:52:44 435.822/435.867
HO-68 24 Apr 06:58:06 07:01:05 13° 78° (ENE) 07:04:03 435.675
NUDT-PHONESAT 24 Apr 07:00:19 07:03:22 24° 93° (E) 07:06:27 437.300
RS-15 24 Apr 07:09:54 07:18:50 25° 99° (E) 07:27:51 29.354- 29.394
SO-50 24 Apr 07:11:42 07:13:57 14° 112° (ESE) 07:16:10 436.795
STARS 24 Apr 07:12:10 07:13:47 12° 276° (W) 07:15:23 437.465
XW-2D 24 Apr 07:25:55 07:29:40 53° 101° (E) 07:33:24 145.860 - 145.880
STRAND 1 24 Apr 07:27:25 07:32:32 82° 71° (ENE) 07:37:41 437.568
CUTE-I 24 Apr 07:28:15 07:33:25 48° 100° (E) 07:38:32 437.470
XW-2B 24 Apr 07:32:45 07:36:32 60° 102° (ESE) 07:40:18 145.730 - 145.750
LilacSat-2 24 Apr 07:39:55 07:43:46 75° 103° (ESE) 07:47:36 437.200
M-CUBED/EXP-1 PRIME 24 Apr 07:40:45 07:45:16 50° 254° (WSW) 07:49:51 437.505
SEEDS 24 Apr 07:43:40 07:45:06 11° 83° (E) 07:46:33 437.485
XW-2C 24 Apr 07:44:30 07:48:20 81° 107° (ESE) 07:52:08 145.795 - 145.815
DOVE 4 24 Apr 07:46:17 07:51:11 76° 288° (WNW) 07:55:45 437.250
PCSat 24 Apr 07:48:51 07:53:15 24° 351° (N) 07:57:40 145.827
KAITUO 1B 24 Apr 07:50:06 07:53:53 76° 104° (ESE) 07:57:39 145.475/437.950
YUBILEINY 24 Apr 07:52:54 08:00:22 31° 306° (NW) 08:07:55 435.215
XW-2A 24 Apr 08:00:58 08:03:24 19° 92° (E) 08:05:51 145.665 - 145.685
AO-7 24 Apr 08:07:18 08:13:52 27° 323° (NW) 08:20:25 .
XW-2F 24 Apr 08:12:33 08:16:16 56° 289° (WNW) 08:20:00 145.980 - 146.000
UNISAT 6 24 Apr 08:12:53 08:13:40 10° 47° (NE) 08:14:27 437.425
NUDT-PHONESAT 24 Apr 08:33:57 08:37:27 40° 293° (WNW) 08:40:57 437.300
PRISM 24 Apr 08:35:22 08:38:30 21° 57° (ENE) 08:41:39 437.425
HO-68 24 Apr 08:43:33 08:50:36 53° 101° (E) 08:57:36 435.675
ZACube-1 24 Apr 08:45:27 08:47:19 13° 85° (E) 08:49:12 437.345
SO-50 24 Apr 08:49:03 08:53:36 65° 132° (SE) 08:58:08 436.795
CUTE 1.7 + AOD 2 24 Apr 08:51:12 08:55:29 62° 102° (ESE) 08:59:44 437.475
AO-73 24 Apr 08:53:58 08:56:11 14° 86° (E) 08:58:24 145.935
AAUSAT CUBESAT 2 24 Apr 08:59:31 09:03:12 29° 94° (E) 09:06:52 437.432
XW-2D 24 Apr 09:00:42 09:03:35 21° 300° (WNW) 09:06:28 145.860 - 145.880
XW-2B 24 Apr 09:07:40 09:10:23 19° 301° (WNW) 09:13:06 145.730 - 145.750
CUTE-I 24 Apr 09:08:32 09:13:24 37° 300° (WNW) 09:18:14 437.470
STRAND 1 24 Apr 09:08:43 09:12:23 20° 272° (W) 09:16:02 437.568
FO-29 24 Apr 09:11:53 09:17:07 31° 58° (ENE) 09:21:55 435.910
Oscar 11 24 Apr 09:12:54 09:15:57 18° 89° (E) 09:19:00 .
LilacSat-2 24 Apr 09:15:10 09:17:36 16° 303° (WNW) 09:20:01 437.200
RS-15 24 Apr 09:17:04 09:29:05 69° 125° (SE) 09:41:19 29.354- 29.394
SEEDS 24 Apr 09:17:18 09:21:35 74° 104° (ESE) 09:25:50 437.485
UWE-3 24 Apr 09:17:41 09:21:32 36° 96° (E) 09:25:26 435.000/436.395/437.385
XW-2C 24 Apr 09:19:46 09:22:03 15° 303° (WNW) 09:24:19 145.795 - 145.815
CUBEBUG 2 24 Apr 09:24:07 09:28:16 63° 102° (ESE) 09:32:24 437.445
DOVE 4 24 Apr 09:25:02 09:28:04 17° 310° (NW) 09:31:00 437.250
KAITUO 1B 24 Apr 09:25:07 09:27:26 16° 303° (WNW) 09:29:46 145.475/437.950
TIGRISAT 24 Apr 09:25:23 09:29:16 32° 63° (ENE) 09:33:07 435.000
XW-2A 24 Apr 09:33:11 09:36:23 42° 291° (WNW) 09:39:34 145.665 - 145.685
PCSat 24 Apr 09:33:40 09:38:18 27° 17° (NNE) 09:42:56 145.827
UNISAT 6 24 Apr 09:45:15 09:49:28 50° 68° (ENE) 09:53:39 437.425
YUBILEINY 24 Apr 09:57:49 10:01:03 12° 337° (NNW) 10:04:18 435.215
AO-7 24 Apr 09:59:45 10:04:02 15° 350° (N) 10:08:19 .
EO-79 24 Apr 09:59:59 10:00:56 11° 48° (NE) 10:01:54 145.935-145.965
OBJECT BX 24 Apr 10:05:26 10:07:17 13° 88° (E) 10:09:07 145.990 - 145.960
DUCHIFAT 1 24 Apr 10:06:10 10:06:42 10° 48° (NE) 10:07:15 145.980
PRISM 24 Apr 10:09:17 10:13:25 66° 256° (WSW) 10:17:36 437.425
DELFI C3 24 Apr 10:11:53 10:15:00 21° 91° (E) 10:18:05 145.870
ZACube-1 24 Apr 10:20:06 10:24:17 85° 102° (ESE) 10:28:32 437.345
CUTE 1.7 + AOD 2 24 Apr 10:27:39 10:30:59 22° 301° (WNW) 10:34:19 437.475
AO-73 24 Apr 10:28:51 10:33:02 88° 284° (WNW) 10:37:16 145.935
SO-50 24 Apr 10:30:03 10:34:21 39° 334° (NNW) 10:38:38 436.795
HO-68 24 Apr 10:31:31 10:38:20 47° 303° (WNW) 10:45:07 435.675
AAUSAT CUBESAT 2 24 Apr 10:34:50 10:38:48 41° 293° (WNW) 10:42:46 437.432
POLYITAN 1 24 Apr 10:35:48 10:38:49 19° 56° (ENE) 10:41:51 437.675
QB50P2 24 Apr 10:41:52 10:45:11 23° 58° (ENE) 10:48:29 145.880/145.840
Oscar 11 24 Apr 10:48:13 10:52:34 70° 288° (WNW) 10:56:54 .
CUTE-I 24 Apr 10:51:05 10:52:06 11° 322° (NW) 10:53:06 437.470
SEEDS 24 Apr 10:53:47 10:56:49 19° 303° (WNW) 10:59:51 437.485
UWE-3 24 Apr 10:54:17 10:58:00 32° 296° (WNW) 11:01:44 435.000/436.395/437.385
ISS 24 Apr 10:55:33 10:57:46 17° 149° (SSE) 10:59:59 437.550
FO-29 24 Apr 10:55:49 11:02:01 64° 257° (WSW) 11:07:34 435.910
Tancredo 1 24 Apr 10:56:32 10:58:48 19° 151° (SSE) 11:01:03 437.200
AIST 2D 24 Apr 10:57:23 11:00:35 35° 67° (ENE) 11:03:48 435.315
CUBEBUG 2 24 Apr 11:01:26 11:04:33 21° 302° (WNW) 11:07:40 437.445
TIGRISAT 24 Apr 11:01:49 11:05:56 39° 263° (W) 11:10:00 435.000
NANOSAT C BR1 24 Apr 11:06:25 11:10:06 30° 62° (ENE) 11:13:48 145.865
PCSat 24 Apr 11:17:18 11:22:43 61° 41° (NE) 11:28:06 145.827
BUGSAT 1 24 Apr 11:18:02 11:20:35 16° 54° (NE) 11:23:08 437.445
LO-87 24 Apr 11:19:25 11:21:16 13° 88° (E) 11:23:06 145.935 - 145.965
UNISAT 6 24 Apr 11:22:48 11:26:26 25° 267° (W) 11:30:04 437.425
RS-15 24 Apr 11:29:50 11:42:07 65° 334° (NNW) 11:54:26 29.354- 29.394
EO-79 24 Apr 11:31:43 11:35:49 52° 69° (ENE) 11:39:57 145.935-145.965
Gurwin Techsat 1B 24 Apr 11:34:08 11:35:42 11° 40° (NE) 11:37:15 435.225
DUCHIFAT 1 24 Apr 11:37:25 11:41:29 50° 68° (ENE) 11:45:33 145.980
OBJECT BX 24 Apr 11:37:47 11:41:28 76° 287° (WNW) 11:45:07 145.990 - 145.960
ESTCUBE 1 24 Apr 11:44:14 11:47:18 17° 88° (E) 11:50:21 437.505/2401.250
O/OREOS (USA 219) 24 Apr 11:45:46 11:50:09 46° 112° (ESE) 11:54:35 437.305
DELFI C3 24 Apr 11:46:09 11:50:05 53° 291° (WNW) 11:54:00 145.870
AO-7 24 Apr 11:48:56 11:53:44 17° 18° (NNE) 11:58:32 .
Oscar 19 24 Apr 11:53:54 11:57:32 20° 50° (NE) 12:01:11 437.125/150
ZACube-1 24 Apr 11:57:24 12:00:05 17° 305° (NW) 12:02:47 437.345
YUBILEINY 24 Apr 12:02:04 12:03:26 10° 13° (NNE) 12:04:48 435.215
AO-73 24 Apr 12:06:14 12:08:43 16° 306° (NW) 12:11:13 145.935
POLYITAN 1 24 Apr 12:09:58 12:14:12 73° 257° (WSW) 12:18:25 437.675
SO-50 24 Apr 12:12:05 12:15:51 25° 358° (N) 12:19:37 436.795
VELOX 1 24 Apr 12:12:36 12:13:08 10° 82° (E) 12:13:39 145.980
QB50P2 24 Apr 12:16:29 12:20:40 60° 258° (WSW) 12:24:52 145.880/145.840
HO-68 24 Apr 12:20:06 12:24:31 18° 326° (NNW) 12:28:57 435.675
Oscar 11 24 Apr 12:25:45 12:27:59 14° 308° (NW) 12:30:12 .
ISS 24 Apr 12:30:37 12:33:42 39° 168° (SSE) 12:36:46 437.550
AIST 2D 24 Apr 12:31:02 12:33:55 24° 267° (W) 12:36:48 435.315
Tancredo 1 24 Apr 12:31:17 12:34:14 40° 171° (S) 12:37:11 437.200
NANOSAT C BR1 24 Apr 12:41:45 12:45:44 41° 262° (W) 12:49:44 145.865
FO-29 24 Apr 12:45:24 12:48:10 13° 277° (W) 12:50:48 435.910
BUGSAT 1 24 Apr 12:51:15 12:55:25 89° 254° (WSW) 12:59:34 437.445
LO-87 24 Apr 12:51:36 12:55:12 71° 286° (WNW) 12:58:45 145.935 - 145.965
PCSat 24 Apr 13:00:59 13:05:56 36° 243° (WSW) 13:10:51 145.827
EO-79 24 Apr 13:08:28 13:11:53 23° 268° (W) 13:15:18 145.935-145.965
Gurwin Techsat 1B 24 Apr 13:09:26 13:14:22 40° 61° (ENE) 13:19:19 435.225
DX 1 24 Apr 13:12:25 13:15:05 16° 88° (E) 13:17:43 434.975-435.025
OBJECT BX 24 Apr 13:13:11 13:14:31 12° 307° (NW) 13:15:51 145.990 - 145.960
DUCHIFAT 1 24 Apr 13:14:00 13:17:25 24° 268° (W) 13:20:51 145.980
ITAMSAT 1 24 Apr 13:14:51 13:17:16 13° 43° (NE) 13:19:41 435.822/435.867
ESTCUBE 1 24 Apr 13:20:06 13:24:41 79° 288° (WNW) 13:29:14 437.505/2401.250
DELFI C3 24 Apr 13:23:33 13:24:01 10° 311° (NW) 13:24:28 145.870
O/OREOS (USA 219) 24 Apr 13:25:26 13:29:42 36° 314° (NW) 13:34:00 437.305
Oscar 19 24 Apr 13:31:00 13:36:10 81° 71° (ENE) 13:41:24 437.125/150
SPROUT 24 Apr 13:34:53 13:39:02 49° 100° (E) 13:43:09 437.525
AO-7 24 Apr 13:37:04 13:44:14 34° 44° (NE) 13:51:25 .
RS-15 24 Apr 13:44:47 13:56:57 55° 6° (N) 14:08:53 29.354- 29.394
50 SAT 24 Apr 13:44:47 13:48:06 38° 98° (E) 13:51:23 437.505
VELOX 1 24 Apr 13:46:04 13:50:31 63° 103° (ESE) 13:54:55 145.980
POLYITAN 1 24 Apr 13:49:35 13:50:47 11° 276° (W) 13:51:57 437.675
SO-50 24 Apr 13:53:18 13:57:27 33° 22° (NNE) 14:01:34 436.795
YUBILEINY 24 Apr 13:58:02 14:04:45 23° 46° (NE) 14:11:27 435.215
ISS 24 Apr 14:06:45 14:09:52 42° 188° (S) 14:12:58 437.550
Tancredo 1 24 Apr 14:06:55 14:09:51 38° 191° (S) 14:12:47 437.200
UKube-1 24 Apr 14:20:30 14:24:40 42° 99° (E) 14:28:47 .
LO-87 24 Apr 14:27:00 14:27:59 11° 307° (NW) 14:28:57 145.935 - 145.965
BUGSAT 1 24 Apr 14:29:24 14:31:25 13° 273° (W) 14:33:25 437.445
AO-85 24 Apr 14:29:36 14:33:32 42° 127° (SE) 14:37:19 145.980
ITUPSAT 1 24 Apr 14:47:18 14:48:18 11° 82° (E) 14:49:20 437.325
DX 1 24 Apr 14:47:28 14:51:53 84° 285° (WNW) 14:56:14 434.975-435.025
Gurwin Techsat 1B 24 Apr 14:49:15 14:54:19 44° 262° (W) 14:59:25 435.225
ITAMSAT 1 24 Apr 14:50:40 14:55:40 50° 65° (ENE) 15:00:42 435.822/435.867
ESTCUBE 1 24 Apr 14:58:01 15:00:49 16° 308° (NW) 15:03:38 437.505/2401.250
BEESAT 3 24 Apr 15:07:19 15:10:28 23° 119° (ESE) 15:13:39 437.485
O/OREOS (USA 219) 24 Apr 15:08:12 15:10:30 13° 338° (NNW) 15:12:47 437.305
SPROUT 24 Apr 15:11:11 15:14:45 26° 300° (WNW) 15:18:18 437.525
Oscar 19 24 Apr 15:12:23 15:16:08 20° 272° (W) 15:19:57 437.125/150
50 SAT 24 Apr 15:18:03 15:20:55 24° 298° (WNW) 15:23:46 437.505
VELOX 1 24 Apr 15:23:06 15:26:38 23° 303° (WNW) 15:30:08 145.980
AO-7 24 Apr 15:27:57 15:36:16 89° 245° (WSW) 15:44:38 .
SO-50 24 Apr 15:33:49 15:38:22 84° 226° (SW) 15:42:52 436.795
Tancredo 1 24 Apr 15:43:09 15:45:15 17° 210° (SSW) 15:47:21 437.200
ISS 24 Apr 15:43:23 15:45:52 20° 208° (SSW) 15:48:21 437.550
BEESAT 24 Apr 15:43:56 15:48:11 31° 95° (E) 15:52:24 436.000
DOVE 4 24 Apr 15:47:13 15:48:56 12° 44° (NE) 15:50:38 437.250
HO-68 24 Apr 15:52:02 15:54:11 12° 19° (NNE) 15:56:19 435.675
YUBILEINY 24 Apr 15:54:44 16:03:31 68° 73° (ENE) 16:12:16 435.215
UKube-1 24 Apr 15:56:47 16:00:36 31° 299° (WNW) 16:04:24 .
RS-15 24 Apr 15:58:46 16:11:16 79° 38° (NE) 16:23:17 29.354- 29.394
MOZHAYETS 4 24 Apr 16:02:25 16:06:15 25° 92° (E) 16:10:05
AO-85 24 Apr 16:10:02 16:13:57 43° 328° (NNW) 16:17:45 145.980
ITUPSAT 1 24 Apr 16:22:25 16:27:10 61° 102° (ESE) 16:31:54 437.325
DX 1 24 Apr 16:24:42 16:27:28 17° 308° (NW) 16:30:11 434.975-435.025
ITAMSAT 1 24 Apr 16:30:41 16:35:22 33° 265° (W) 16:40:04 435.822/435.867
BEESAT 2 24 Apr 16:36:16 16:40:11 55° 130° (SE) 16:44:09 435.950
KKS-1 24 Apr 16:36:34 16:38:11 12° 84° (E) 16:39:47 437.445
XW-2D 24 Apr 16:42:30 16:43:53 12° 53° (NE) 16:45:17 145.860 - 145.880
BEESAT 3 24 Apr 16:43:44 16:47:43 70° 321° (NW) 16:51:45 437.485
CUBESAT XI-V 24 Apr 16:46:28 16:49:19 16° 86° (E) 16:52:10 437.345
XW-2B 24 Apr 16:48:56 16:50:41 13° 54° (NE) 16:52:27 145.730 - 145.750
LilacSat-2 24 Apr 16:56:03 16:58:19 15° 56° (ENE) 17:00:36 437.200
XW-2C 24 Apr 17:00:00 17:02:21 16° 57° (ENE) 17:04:41 145.795 - 145.815
KAITUO 1B 24 Apr 17:04:45 17:06:51 15° 56° (NE) 17:08:58 145.475/437.950
SO-50 24 Apr 17:15:11 17:18:13 18° 245° (WSW) 17:21:15 436.795
STARS 24 Apr 17:15:48 17:17:49 13° 85° (E) 17:19:48 437.465
CUTE-I 24 Apr 17:18:17 17:22:59 32° 58° (ENE) 17:27:41 437.470
DOVE 4 24 Apr 17:20:28 17:25:28 43° 65° (ENE) 17:30:22 437.250
BEESAT 24 Apr 17:21:34 17:26:09 47° 295° (WNW) 17:30:43 436.000
AO-7 24 Apr 17:23:21 17:30:09 28° 270° (W) 17:37:01 .
XW-2F 24 Apr 17:26:39 17:29:44 25° 63° (ENE) 17:32:52 145.980 - 146.000
HO-68 24 Apr 17:33:57 17:39:37 26° 44° (NE) 17:45:17 435.675
MOZHAYETS 4 24 Apr 17:39:13 17:43:44 55° 292° (WNW) 17:48:13
NUDT-PHONESAT 24 Apr 17:46:16 17:49:33 31° 65° (ENE) 17:52:51 437.300
YUBILEINY 24 Apr 17:52:04 17:59:52 38° 277° (W) 18:07:41 435.215
AO-85 24 Apr 17:52:06 17:55:13 21° 351° (N) 17:58:17 145.980
ITUPSAT 1 24 Apr 18:00:44 18:04:42 27° 303° (WNW) 18:08:40 437.325
KKS-1 24 Apr 18:11:06 18:15:35 72° 104° (ESE) 18:20:01 437.445
RS-15 24 Apr 18:11:44 18:23:11 48° 246° (WSW) 18:34:11 29.354- 29.394
XW-2D 24 Apr 18:13:41 18:17:26 73° 73° (ENE) 18:21:12 145.860 - 145.880
BEESAT 2 24 Apr 18:14:23 18:18:08 37° 331° (NNW) 18:21:57 435.950
CUTE 1.7 + AOD 2 24 Apr 18:16:24 18:19:19 18° 56° (NE) 18:22:14 437.475
XW-2B 24 Apr 18:20:32 18:24:17 83° 74° (ENE) 18:28:05 145.730 - 145.750
BEESAT 3 24 Apr 18:22:33 18:25:56 25° 342° (NNW) 18:29:20 437.485
CUBESAT XI-V 24 Apr 18:22:38 18:27:25 88° 110° (ESE) 18:32:09 437.345
LilacSat-2 24 Apr 18:28:21 18:32:07 79° 255° (WSW) 18:35:55 437.200
O/OREOS (USA 219) 24 Apr 18:30:26 18:33:29 17° 30° (NNE) 18:36:31 437.305
XW-2C 24 Apr 18:32:21 18:36:06 75° 257° (WSW) 18:39:53 145.795 - 145.815
KAITUO 1B 24 Apr 18:36:41 18:40:22 82° 255° (WSW) 18:44:07 145.475/437.950
XW-2A 24 Apr 18:39:02 18:41:40 22° 62° (ENE) 18:44:19 145.665 - 145.685
SEEDS 24 Apr 18:41:18 18:44:26 21° 58° (ENE) 18:47:35 437.485
UWE-3 24 Apr 18:47:39 18:49:40 13° 52° (NE) 18:51:41 435.000/436.395/437.385
STARS 24 Apr 18:50:29 18:54:54 81° 104° (ESE) 18:59:17 437.465
CUBEBUG 2 24 Apr 18:53:43 18:56:56 21° 58° (ENE) 19:00:06 437.445
CUTE-I 24 Apr 18:57:33 19:02:49 57° 258° (WSW) 19:08:07 437.470
DOVE 4 24 Apr 18:58:13 19:03:11 40° 264° (W) 19:08:06 437.250
XW-2F 24 Apr 19:00:14 19:03:45 40° 262° (W) 19:07:19 145.980 - 146.000
BEESAT 24 Apr 19:01:18 19:02:54 12° 316° (NW) 19:04:30 436.000
MOZHAYETS 4 24 Apr 19:18:08 19:19:58 12° 312° (NW) 19:21:50
HO-68 24 Apr 19:19:18 19:26:26 78° 67° (ENE) 19:33:39 435.675
NUDT-PHONESAT 24 Apr 19:20:13 19:23:29 30° 265° (W) 19:26:46 437.300
STRAND 1 24 Apr 19:31:32 19:34:48 17° 86° (E) 19:38:03 437.568
AO-85 24 Apr 19:33:29 19:36:45 24° 16° (NNE) 19:40:02 145.980
ZACube-1 24 Apr 19:47:24 19:50:48 24° 60° (ENE) 19:54:11 437.345
KKS-1 24 Apr 19:48:22 19:51:43 21° 304° (NW) 19:55:03 437.445
XW-2D 24 Apr 19:50:03 19:52:07 14° 272° (W) 19:54:11 145.860 - 145.880
CUTE 1.7 + AOD 2 24 Apr 19:50:26 19:54:40 79° 256° (WSW) 19:58:57 437.475
BEESAT 2 24 Apr 19:53:45 19:56:53 21° 355° (N) 20:00:02 435.950
AO-73 24 Apr 19:55:45 19:59:14 26° 61° (ENE) 20:02:42 145.935
AAUSAT CUBESAT 2 24 Apr 19:56:03 20:00:02 47° 68° (ENE) 20:04:04 437.432
XW-2B 24 Apr 19:57:22 19:59:02 13° 273° (W) 20:00:44 145.730 - 145.750
CUBESAT XI-V 24 Apr 20:00:54 20:04:13 19° 306° (NW) 20:07:32 437.345
BEESAT 3 24 Apr 20:01:33 20:04:40 21° 6° (N) 20:07:46 437.485
LilacSat-2 24 Apr 20:06:42 20:07:06 10° 276° (W) 20:07:30 437.200
O/OREOS (USA 219) 24 Apr 20:09:21 20:13:55 56° 53° (NE) 20:18:25 437.305
XW-2A 24 Apr 20:11:06 20:14:16 38° 262° (W) 20:17:27 145.665 - 145.685
Oscar 11 24 Apr 20:14:05 20:17:57 33° 63° (ENE) 20:21:51 .
KAITUO 1B 24 Apr 20:14:33 20:15:04 10° 275° (W) 20:15:34 145.475/437.950
SEEDS 24 Apr 20:15:34 20:19:45 66° 258° (WSW) 20:23:58 437.485
UWE-3 24 Apr 20:21:13 20:25:27 71° 73° (ENE) 20:29:38 435.000/436.395/437.385
RS-15 24 Apr 20:27:16 20:32:09 13° 272° (W) 20:36:59 29.354- 29.394
STARS 24 Apr 20:27:41 20:30:46 19° 306° (NW) 20:33:50 437.465
CUBEBUG 2 24 Apr 20:28:52 20:33:12 67° 257° (WSW) 20:37:27 437.445
CUTE-I 24 Apr 20:42:34 20:44:04 11° 279° (W) 20:45:35 437.470
M-CUBED/EXP-1 PRIME 24 Apr 20:47:11 20:51:24 42° 104° (ESE) 20:55:19 437.505
OBJECT BX 24 Apr 20:49:49 20:52:22 18° 59° (ENE) 20:54:56 145.990 - 145.960
DELFI C3 24 Apr 21:03:46 21:07:20 32° 64° (ENE) 21:10:56 145.870
HO-68 24 Apr 21:08:49 21:14:55 30° 269° (W) 21:21:05 435.675
STRAND 1 24 Apr 21:09:37 21:14:46 87° 107° (ESE) 21:19:53 437.568
AO-85 24 Apr 21:13:51 21:17:47 66° 39° (NE) 21:21:46 145.980
ZACube-1 24 Apr 21:22:46 21:26:53 51° 260° (W) 21:30:57 437.345
CUTE 1.7 + AOD 2 24 Apr 21:29:37 21:31:16 12° 276° (W) 21:32:56 437.475
NO-84 24 Apr 21:31:12 21:33:39 18° 143° (SE) 21:35:59 435.350 FM
AO-73 24 Apr 21:31:17 21:35:18 46° 261° (W) 21:39:20 145.935
AAUSAT CUBESAT 2 24 Apr 21:32:15 21:35:43 25° 268° (W) 21:39:13 437.432
BEESAT 2 24 Apr 21:32:20 21:35:48 26° 18° (NNE) 21:39:15 435.950
BEESAT 3 24 Apr 21:39:26 21:43:14 37° 29° (NNE) 21:46:59 437.485
PRISM 24 Apr 21:45:24 21:46:42 11° 85° (E) 21:48:00 437.425
O/OREOS (USA 219) 24 Apr 21:49:11 21:53:04 27° 254° (WSW) 21:56:54 437.305
Oscar 11 24 Apr 21:50:03 21:54:03 38° 263° (W) 21:58:07 .
UWE-3 24 Apr 21:59:33 22:02:24 17° 271° (W) 22:05:13 435.000/436.395/437.385
LO-87 24 Apr 22:02:03 22:04:36 18° 59° (ENE) 22:07:10 145.935 - 145.965
